DW7234 Weather Reports


time (UTC)temp
C
wind
direction
speed
KPH
gust
KPH
rain 1hr
cm
rain 24hr
cm
rain mn
cm
humidity
%
barometer
mb
20200226015018 1 216 25.7 40.2 0.00 0.33 0.08 94 994.6
20200226014518 2 227 19.3 33.8 0.00 0.25 0.08 95 995.8
20200226013518 1 240 27.4 46.7 0.00 0.33 0.08 94 994.4
20200226011518 1 227 32.2 48.3 0.00 0.33 0.08 94 994.6
20200226011018 1 208 32.2 48.3 0.00 0.33 0.08 94 994.7
20200226010518 1 247 30.6 45.1 0.00 0.33 0.08 94 994.7
20200226010018 1 232 27.4 43.5 0.00 0.33 0.08 94 994.8
20200226005518 1 215 29.0 43.5 0.00 0.33 0.08 94 994.8
20200226005018 1 250 27.4 46.7 0.00 0.33 0.08 95 994.8
20200226004518 1 220 30.6 46.7 0.00 0.33 0.08 95 995.0
20200226004018 1 212 22.5 35.4 0.00 0.33 0.08 95 995.1
20200226003518 1 211 19.3 33.8 0.00 0.33 0.08 95 995.1
20200226003018 1 184 19.3 33.8 0.00 0.33 0.08 95 995.2
20200226002517 2 191 20.9 33.8 0.00 0.33 0.08 96 995.1
20200226002017 2 173 22.5 32.2 0.00 0.33 0.08 96 995.2
20200226001518 2 175 20.9 29.0 0.00 0.33 0.08 96 995.3
20200226000517 2 219 19.3 25.7 0.00 0.33 0.08 96 995.4
20200225235517 2 236 17.7 29.0 0.08 0.33 0.08 96 995.4
20200225234018 2 227 19.3 33.8 0.08 0.33 0.08 96 995.6
20200225231517 2 200 17.7 32.2 0.08 0.33 0.08 96 996.0
20200225230017 2 208 19.3 33.8 0.00 0.25 0.00 95 995.8
20200225225517 2 227 17.7 33.8 0.00 0.25 0.25 95 995.8
20200225225017 2 223 19.3 33.8 0.00 0.25 0.25 95 995.8
20200225224019 3 221 22.5 37.0 0.00 0.25 0.25 95 995.7
20200225222517 3 242 25.7 41.8 0.00 0.25 0.25 95 995.7
20200225222016 3 224 27.4 45.1 0.00 0.25 0.25 95 995.9
20200225221517 3 224 25.7 45.1 0.00 0.25 0.25 95 995.9
20200225220517 3 213 25.7 51.5 0.00 0.25 0.25 95 996.0
20200225215517 3 237 27.4 53.1 0.00 0.25 0.25 96 996.0
20200225215018 3 213 27.4 53.1 0.00 0.25 0.25 96 996.1
20200225214517 3 232 24.1 38.6 0.00 0.25 0.25 96 996.0
20200225213018 3 190 29.0 41.8 0.00 0.25 0.25 96 996.2
20200225212017 3 232 24.1 37.0 0.00 0.25 0.25 97 996.6
20200225211016 3 250 22.5 35.4 0.00 0.25 0.25 97 996.7
20200225210517 3 229 20.9 33.8 0.00 0.25 0.25 97 996.8
20200225210019 3 238 20.9 37.0 0.00 0.25 0.25 96 996.8
20200225204513 4 254 14.5 38.6 0.00 0.25 0.25 97 996.9
20200225203013 4 221 29.0 43.5 0.00 0.25 0.25 96 997.0
20200225202012 4 219 33.8 49.9 0.00 0.25 0.25 96 997.3
20200225200013 4 232 25.7 41.8 0.00 0.25 0.25 97 997.6
20200225195512 4 217 19.3 43.5 0.00 0.25 0.25 97 997.6
20200225194512 4 209 24.1 38.6 0.00 0.25 0.25 97 997.7
20200225194012 4 219 22.5 41.8 0.00 0.25 0.25 97 997.9
20200225192513 4 194 22.5 40.2 0.00 0.25 0.25 97 998.1
20200225191012 5 201 22.5 35.4 0.00 0.25 0.25 97 998.3
20200225190512 5 221 24.1 35.4 0.00 0.25 0.25 97 998.3
20200225185511 5 218 22.5 35.4 0.00 0.25 0.25 97 998.4
20200225183012 5 223 19.3 33.8 0.00 0.25 0.25 97 998.2
20200225182512 5 233 20.9 33.8 0.00 0.25 0.25 97 998.4
20200225174512 5 242 22.5 33.8 0.00 0.25 0.25 97 998.3
20200225173010 8 259 25.7 46.7 0.00 0.00 0.25 88 1008.2
20200225172511 5 225 27.4 40.2 0.00 0.25 0.25 97 998.3
20200225171513 5 242 27.4 38.6 0.00 0.25 0.25 97 998.3
20200225171011 5 219 29.0 40.2 0.00 0.25 0.25 97 998.4
20200225170511 5 247 29.0 40.2 0.00 0.25 0.25 97 998.5
20200225165511 5 246 29.0 38.6 0.00 0.25 0.25 97 998.5
20200225164509 8 259 22.5 46.7 0.00 0.00 0.25 88 1008.2
20200225164010 5 218 19.3 30.6 0.00 0.25 0.25 97 998.8
20200225162511 5 241 19.3 33.8 0.00 0.25 0.25 97 998.9
20200225162009 5 200 25.7 37.0 0.00 0.25 0.25 97 999.1
20200225161509 5 252 25.7 37.0 0.00 0.25 0.25 97 999.2
20200225161009 5 233 25.7 37.0 0.00 0.25 0.25 97 999.3
20200225160511 5 233 27.4 37.0 0.00 0.25 0.25 97 999.3
20200225160009 5 202 19.3 32.2 0.00 0.25 0.25 97 999.2
20200225155538 5 202 16.1 32.2 0.00 0.25 0.25 97 999.2
20200225155014 5 225 19.3 32.2 0.00 0.25 0.25 97 999.2
20200225153514 5 199 22.5 32.2 0.00 0.25 0.25 97 999.5
20200225152513 5 238 22.5 33.8 0.00 0.25 0.25 97 999.5
20200225152013 5 213 22.5 33.8 0.00 0.25 0.25 97 999.6
20200225151514 5 230 19.3 30.6 0.00 0.25 0.25 97 999.6
20200225150515 5 241 16.1 25.7 0.00 0.25 0.25 96 999.7
20200225150013 5 225 14.5 30.6 0.00 0.25 0.25 96 999.8
20200225144513 5 249 16.1 30.6 0.00 0.25 0.25 96 999.9
20200225144013 6 244 19.3 30.6 0.00 0.25 0.25 97 1000.0
20200225143014 6 229 19.3 35.4 0.00 0.25 0.25 97 1000.0
20200225142513 6 227 25.7 35.4 0.00 0.25 0.25 96 1000.0
20200225142013 6 254 22.5 33.8 0.00 0.25 0.25 96 1000.1
20200225141513 6 259 25.7 33.8 0.00 0.25 0.25 97 1000.0
20200225141013 6 236 20.9 32.2 0.00 0.25 0.25 97 1000.0
20200225135012 6 290 22.5 33.8 0.00 0.25 0.25 97 1000.1
20200225134513 6 265 22.5 32.2 0.00 0.25 0.25 97 1000.2
20200225134014 5 259 20.9 37.0 0.00 0.25 0.25 97 999.9
20200225132012 6 265 16.1 43.5 0.00 0.25 0.25 96 1000.4
20200225131512 6 257 20.9 45.1 0.00 0.25 0.25 96 1000.3
20200225124512 6 223 22.5 48.3 0.00 0.25 0.25 96 1000.6
20200225123512 6 216 24.1 48.3 0.00 0.25 0.25 96 1000.6
20200225123013 6 233 29.0 53.1 0.00 0.25 0.25 96 1000.6
20200225122012 6 236 32.2 51.5 0.00 0.25 0.25 96 1000.7
20200225121512 6 194 29.0 49.9 0.00 0.25 0.25 96 1000.7
20200225121011 6 200 29.0 49.9 0.00 0.25 0.25 96 1000.8
20200225120515 6 221 30.6 48.3 0.00 0.25 0.25 96 1000.8
20200225120012 6 229 22.5 46.7 0.00 0.25 0.25 96 1001.1
20200225114512 6 225 22.5 48.3 0.00 0.25 0.25 96 1001.2
20200225113512 6 209 27.4 45.1 0.00 0.25 0.25 96 1001.2
20200225113012 6 217 29.0 46.7 0.00 0.25 0.25 96 1001.4
20200225111510 5 250 29.0 40.2 0.05 0.10 0.25 94 1004.5
20200225110512 6 231 24.1 43.5 0.00 0.25 0.25 96 1001.7
20200225105012 6 211 32.2 45.1 0.00 0.25 0.25 96 1001.9
20200225104510 6 223 27.4 46.7 0.00 0.25 0.25 96 1002.1
20200225104012 6 223 25.7 46.7 0.00 0.25 0.25 96 1002.1
20200225103011 6 240 27.4 48.3 0.00 0.25 0.25 96 1002.0
20200225102510 8 259 27.4 46.7 0.00 0.00 0.25 88 1007.5
20200225101010 8 259 25.7 46.7 0.00 0.00 0.25 88 1007.5
20200225100010 5 232 30.6 46.7 0.00 0.25 0.25 96 1002.5
20200225095011 5 209 29.0 46.7 0.00 0.25 0.25 96 1002.3
20200225094515 5 244 24.1 48.3 0.00 0.25 0.25 96 1002.3
20200225094014 5 223 30.6 48.3 0.00 0.25 0.25 96 1002.2
20200225093014 5 261 29.0 56.3 0.00 0.25 0.25 96 1002.4
20200225092514 5 221 33.8 56.3 0.00 0.25 0.25 96 1002.4
20200225092014 5 216 30.6 48.3 0.00 0.25 0.25 96 1002.5
20200225091514 5 214 25.7 48.3 0.00 0.25 0.25 96 1002.5
20200225091014 5 220 29.0 48.3 0.00 0.25 0.25 96 1002.5
20200225090014 5 223 29.0 53.1 0.00 0.25 0.25 96 1002.6
20200225085014 5 265 30.6 49.9 0.03 0.25 0.25 95 1002.5
20200225084014 5 234 30.6 46.7 0.03 0.25 0.25 95 1002.6
20200225083514 5 197 24.1 46.7 0.03 0.25 0.25 95 1002.7
20200225082514 5 231 29.0 41.8 0.03 0.25 0.25 95 1003.0
20200225082013 5 204 24.1 48.3 0.03 0.25 0.25 95 1003.1
20200225080513 5 209 33.8 53.1 0.05 0.25 0.25 95 1003.1
20200225073513 5 216 35.4 51.5 0.03 0.23 0.23 95 1003.1
20200225073013 5 213 29.0 48.3 0.03 0.23 0.23 95 1003.2
20200225072513 5 228 32.2 43.5 0.03 0.23 0.23 95 1003.2
20200225072013 5 213 30.6 51.5 0.03 0.23 0.23 95 1003.3
20200225071513 5 225 35.4 51.5 0.03 0.23 0.20 95 1003.3
20200225070513 5 215 30.6 41.8 0.03 0.23 0.20 95 1003.4
20200225070014 5 203 25.7 43.5 0.03 0.20 0.20 95 1003.3
20200225064012 5 216 25.7 40.2 0.03 0.20 0.18 95 1003.5
20200225063513 5 217 32.2 46.7 0.03 0.20 0.18 95 1003.5
20200225062513 5 226 24.1 51.5 0.03 0.20 0.18 95 1003.6
20200225061514 5 213 25.7 40.2 0.03 0.18 0.18 95 1003.6
20200225060512 5 203 25.7 43.5 0.03 0.18 0.18 95 1003.8
20200225060013 5 238 25.7 40.2 0.03 0.18 0.18 95 1003.7
20200225055513 5 226 24.1 40.2 0.05 0.20 0.18 95 1003.8
20200225054513 5 202 24.1 41.8 0.05 0.18 0.15 95 1003.8
20200225053512 5 217 27.4 40.2 0.05 0.18 0.15 95 1003.9
20200225051013 5 211 24.1 38.6 0.05 0.18 0.13 94 1004.3
20200225050012 5 238 29.0 43.5 0.05 0.15 0.13 95 1004.4
20200225044012 5 171 27.4 37.0 0.05 0.15 0.10 95 1004.3
20200225043513 5 200 25.7 40.2 0.05 0.15 0.10 95 1004.4
20200225042513 5 252 27.4 41.8 0.05 0.15 0.10 94 1004.4
20200225042013 5 259 30.6 46.7 0.05 0.15 0.10 94 1004.6
20200225041010 5 239 24.1 37.0 0.05 0.13 0.08 94 1004.5
20200225040010 8 259 25.7 46.7 0.00 0.05 0.08 88 1007.5
20200225035510 8 259 30.6 46.7 0.00 0.05 0.08 88 1007.5
20200225035015 5 229 30.6 41.8 0.05 0.13 0.08 94 1004.6
20200225034515 5 213 25.7 41.8 0.05 0.13 0.08 94 1004.6
20200225033514 6 223 30.6 43.5 0.05 0.10 0.05 94 1004.7
20200225033014 6 225 32.2 43.5 0.05 0.10 0.05 94 1004.7
20200225031514 6 261 27.4 48.3 0.03 0.10 0.05 94 1005.0
20200225030014 6 240 30.6 43.5 0.03 0.08 0.03 95 1004.8
20200225025514 6 260 27.4 40.2 0.03 0.08 0.03 95 1004.8
20200225025014 6 245 24.1 40.2 0.03 0.08 0.03 95 1005.1
20200225024014 6 240 25.7 37.0 0.03 0.08 0.03 95 1005.1
20200225023514 6 276 25.7 37.0 0.03 0.08 0.03 95 1005.2
20200225023016 6 226 24.1 37.0 0.03 0.08 0.03 96 1005.0
20200225022514 6 227 24.1 38.6 0.00 0.05 0.00 96 1005.0
20200225020513 6 275 29.0 45.1 0.00 0.05 0.00 95 1005.2